TimeCST,TemperatureF,Dew PointF,Humidity,Sea Level PressureIn,VisibilityMPH,Wind Direction,Wind SpeedMPH,Gust SpeedMPH,PrecipitationIn,Events,Conditions,WindDirDegrees,DateUTC
12:15 AM,15.8,14.0,93,29.61,10.0,SE,8.1,-,N/A,,Clear,130,2013-01-19 06:15:00
12:35 AM,14.0,14.0,100,29.61,10.0,SSE,5.8,-,N/A,,Clear,150,2013-01-19 06:35:00
12:55 AM,15.8,14.0,93,29.61,10.0,SSE,5.8,-,N/A,,Clear,150,2013-01-19 06:55:00
1:15 AM,14.0,14.0,100,29.61,10.0,SSW,5.8,-,N/A,,Clear,210,2013-01-19 07:15:00
1:35 AM,15.8,15.8,100,29.60,5.0,WSW,8.1,-,N/A,,Clear,240,2013-01-19 07:35:00
1:55 AM,17.6,17.6,100,29.60,6.0,West,13.8,-,N/A,,Clear,270,2013-01-19 07:55:00
2:15 AM,26.6,26.6,100,29.60,10.0,West,19.6,-,N/A,,Clear,270,2013-01-19 08:15:00
2:35 AM,26.6,26.6,100,29.61,10.0,West,18.4,-,N/A,,Clear,280,2013-01-19 08:35:00
2:55 AM,28.4,26.6,93,29.62,10.0,West,21.9,-,N/A,,Clear,280,2013-01-19 08:55:00
3:15 AM,28.4,26.6,93,29.63,10.0,West,20.7,-,N/A,,Scattered Clouds,280,2013-01-19 09:15:00
3:35 AM,30.2,28.4,93,29.63,10.0,WNW,20.7,-,N/A,,Scattered Clouds,290,2013-01-19 09:35:00
3:55 AM,30.2,28.4,93,29.64,10.0,WNW,20.7,-,N/A,,Mostly Cloudy,290,2013-01-19 09:55:00
4:15 AM,30.2,28.4,93,29.64,10.0,WNW,20.7,26.5,N/A,,Mostly Cloudy,290,2013-01-19 10:15:00
4:35 AM,30.2,28.4,93,29.64,10.0,WNW,19.6,-,N/A,,Mostly Cloudy,290,2013-01-19 10:35:00
4:55 AM,30.2,28.4,93,29.67,10.0,NW,18.4,25.3,N/A,,Overcast,320,2013-01-19 10:55:00
5:15 AM,24.8,23.0,93,29.69,3.0,North,26.5,32.2,N/A,,Overcast,350,2013-01-19 11:15:00
5:35 AM,23.0,21.2,93,29.70,5.0,North,25.3,31.1,N/A,,Overcast,350,2013-01-19 11:35:00
5:55 AM,19.4,17.6,93,29.72,2.0,North,28.8,39.1,N/A,,Overcast,350,2013-01-19 11:55:00
6:55 AM,14.0,8.6,79,29.78,6.0,North,27.6,34.5,N/A,,Overcast,350,2013-01-19 12:55:00
7:15 AM,14.0,8.6,79,29.80,2.5,North,27.6,35.7,N/A,Snow,Light Snow,350,2013-01-19 13:15:00
7:55 AM,8.6,5.0,85,29.85,1.0,NNW,27.6,47.2,0.07,Rain,Freezing Rain,340,2013-01-19 13:55:00
8:35 AM,6.8,3.2,85,29.89,1.0,North,31.1,41.4,N/A,,Overcast,350,2013-01-19 14:35:00
9:55 AM,5.0,-0.4,78,29.97,1.2,NNW,38.0,44.9,N/A,,Haze,330,2013-01-19 15:55:00
10:15 AM,5.0,-0.4,78,29.99,1.8,NNW,29.9,39.1,N/A,,Overcast,340,2013-01-19 16:15:00
10:35 AM,3.2,-0.4,85,30.01,0.5,NNW,35.7,43.7,N/A,Rain,Freezing Rain,330,2013-01-19 16:35:00
11:15 AM,1.4,-0.4,92,30.05,0.5,NNW,28.8,38.0,N/A,Fog,Light Freezing Fog,330,2013-01-19 17:15:00
11:35 AM,1.4,-4.0,78,30.06,0.8,NNW,34.5,42.6,N/A,,Haze,330,2013-01-19 17:35:00
11:55 AM,1.4,-4.0,78,30.07,1.0,NNW,34.5,43.7,N/A,,Haze,330,2013-01-19 17:55:00
12:15 PM,-0.4,-4.0,85,30.08,0.8,NNW,34.5,47.2,N/A,,Overcast,330,2013-01-19 18:15:00
12:35 PM,-0.4,-4.0,85,30.09,1.2,NNW,34.5,42.6,N/A,,Haze,330,2013-01-19 18:35:00
12:55 PM,-0.4,-4.0,85,30.11,1.8,NNW,29.9,40.3,N/A,,Haze,330,2013-01-19 18:55:00
1:15 PM,-0.4,-4.0,85,30.13,1.0,NNW,33.4,42.6,N/A,,Haze,340,2013-01-19 19:15:00
1:35 PM,-0.4,-5.8,78,30.14,2.0,NNW,32.2,40.3,N/A,,Haze,340,2013-01-19 19:35:00
1:55 PM,-0.4,-7.6,72,30.14,3.0,NNW,31.1,36.8,N/A,,Haze,340,2013-01-19 19:55:00
2:15 PM,-0.4,-7.6,72,30.17,3.0,NNW,28.8,38.0,N/A,,Haze,340,2013-01-19 20:15:00
2:35 PM,-0.4,-7.6,72,30.18,4.0,NNW,31.1,35.7,N/A,,Haze,330,2013-01-19 20:35:00
2:55 PM,-0.4,-7.6,72,30.21,4.0,NNW,32.2,39.1,N/A,,Haze,330,2013-01-19 20:55:00
3:15 PM,-0.4,-7.6,72,30.23,6.0,NNW,27.6,-,N/A,,Haze,330,2013-01-19 21:15:00
3:35 PM,-0.4,-7.6,72,30.24,9.0,NNW,26.5,29.9,N/A,,Partly Cloudy,330,2013-01-19 21:35:00
3:55 PM,-0.4,-9.4,66,30.25,10.0,NNW,25.3,-,N/A,,Clear,330,2013-01-19 21:55:00
4:15 PM,-0.4,-9.4,66,30.25,10.0,NNW,27.6,31.1,N/A,,Clear,330,2013-01-19 22:15:00
4:35 PM,-2.2,-9.4,71,30.27,10.0,NNW,21.9,32.2,N/A,,Clear,330,2013-01-19 22:35:00
4:55 PM,-2.2,-9.4,71,30.27,10.0,NNW,23.0,-,N/A,,Clear,330,2013-01-19 22:55:00
5:15 PM,-2.2,-11.2,66,30.28,10.0,NNW,21.9,-,N/A,,Clear,340,2013-01-19 23:15:00
5:35 PM,-4.0,-11.2,71,30.28,10.0,NNW,16.1,-,N/A,,Clear,330,2013-01-19 23:35:00
5:55 PM,-4.0,-9999,N/A,30.28,10.0,NNW,15.0,-,N/A,,Clear,340,2013-01-19 23:55:00
6:15 PM,-4.0,-13.0,65,30.29,10.0,NW,11.5,-,N/A,,Clear,320,2013-01-20 00:15:00
6:35 PM,-5.8,-13.0,71,30.29,10.0,NW,12.7,-,N/A,,Clear,320,2013-01-20 00:35:00
6:55 PM,-7.6,-13.0,77,30.29,10.0,NW,10.4,-,N/A,,Clear,320,2013-01-20 00:55:00
7:15 PM,-7.6,-14.8,71,30.29,10.0,NW,6.9,-,N/A,,Clear,320,2013-01-20 01:15:00
7:35 PM,-9.4,-18.4,65,30.29,10.0,NNW,8.1,-,N/A,,Clear,330,2013-01-20 01:35:00
7:55 PM,-9.4,-16.6,71,30.29,10.0,WNW,3.5,-,N/A,,Clear,300,2013-01-20 01:55:00
8:15 PM,-11.2,-18.4,70,30.30,10.0,WNW,9.2,-,N/A,,Clear,300,2013-01-20 02:15:00
8:35 PM,-9999,-9999,N/A,30.30,10.0,WNW,9.2,-,N/A,,Clear,300,2013-01-20 02:35:00
8:55 PM,-11.2,-18.4,70,30.30,10.0,NNW,5.8,-,N/A,,Clear,330,2013-01-20 02:55:00
9:15 PM,-11.2,-18.4,70,30.30,10.0,NW,5.8,-,N/A,,Clear,310,2013-01-20 03:15:00
9:35 PM,-11.2,-18.4,70,30.31,10.0,WNW,6.9,-,N/A,,Clear,290,2013-01-20 03:35:00
9:55 PM,-11.2,-18.4,70,30.30,10.0,West,4.6,-,N/A,,Clear,280,2013-01-20 03:55:00
10:15 PM,-11.2,-18.4,70,30.31,10.0,West,8.1,-,N/A,,Clear,280,2013-01-20 04:15:00
10:35 PM,-11.2,-18.4,70,30.30,10.0,WNW,5.8,-,N/A,,Clear,290,2013-01-20 04:35:00
10:55 PM,-11.2,-18.4,70,30.30,10.0,WNW,8.1,-,N/A,,Clear,290,2013-01-20 04:55:00
11:15 PM,-11.2,-18.4,70,30.30,10.0,WNW,6.9,-,N/A,,Clear,290,2013-01-20 05:15:00
11:35 PM,-11.2,-18.4,70,30.28,10.0,WNW,8.1,-,N/A,,Clear,290,2013-01-20 05:35:00
11:55 PM,-9.4,-16.6,71,30.29,10.0,WNW,5.8,-,N/A,,Clear,290,2013-01-20 05:55:00